Lubbock, TX

12:35 PM CDT on June 23, 2017 (GMT -0500)
Lubbock International

Weather History for KLBB - December, 2012

Change the Weather History Date:

Wednesday, December 5, 2012

  Actual Average Record
Temperature  
Mean Temperature 50 °F 42 °F  
Max Temperature 65 °F 56 °F 79 °F (1939)
Min Temperature 34 °F 29 °F 10 °F (1950)
Degree Days  
Heating Degree Days 15 23  
Month to date heating degree days 45 111  
Since 1 July heating degree days 566 753  
Cooling Degree Days 0 0  
Month to date cooling degree days 0 0  
Year to date cooling degree days 2322 1804  
Moisture  
Dew Point 22 °F    
Average Humidity 32    
Maximum Humidity 44    
Minimum Humidity 19    
Precipitation  
Precipitation 0.00 in 0.03 in 0.46 in (1943)
Month to date precipitation 0.00 0.12  
Year to date precipitation 10.75 18.48  
Snow  
Snow 0.00 in 0.10 in 3.00 in (1971)
Month to date snowfall 0.0 0.3  
Since 1 July snowfall 0.0 1.2  
Snow Depth 0.00 in    
Sea Level Pressure  
Sea Level Pressure 30.09 in    
Wind  
Wind Speed 10 mph (SSW)    
Max Wind Speed 22 mph    
Max Gust Speed 26 mph    
Visibility 10 miles    
Events      
T = Trace of Precipitation, MM = Missing Value Source: NWS Daily Summary

Daily Weather History Graph

Daily Weather History Graph

Search for Another Location

Airport or City:

Trip Planner

Search our weather history database for the weather conditions in past years. The results will help you decide how hot, cold, wet, or windy it might be!

Date:

Astronomy

Dec. 05, 2012 Rise Set
Actual Time 7:37 AM CST 5:38 PM CST
Civil Twilight 7:10 AM CST 6:06 PM CST
Nautical Twilight 6:39 AM CST 6:37 PM CST
Astronomical Twilight 6:09 AM CST 7:07 PM CST
Moon No Moon Rise 12:15 PM CST (12/5)
Length of Visible Light 10h 55m
Length of Day
10h 01m
Waning Gibbous, 59% of the Moon is Illuminated
Dec 5
Waning Gibbous
Dec 6
Last Quarter
Dec 13
New
Dec 19
First Quarter
Dec 28
Full

Hourly Weather History & Observations

Time (CST) Temp. Windchill Dew Point Humidity Pressure Visibility Wind Dir Wind Speed Gust Speed Precip Events Conditions
12:53 AM 43.0 °F 41.3 °F 15.1 °F 32% 30.27 in 10.0 mi South 3.5 mph - N/A   Partly Cloudy
1:53 AM 39.0 °F - 15.1 °F 38% 30.26 in 10.0 mi Calm Calm - N/A   Partly Cloudy
2:53 AM 39.0 °F - 14.0 °F 36% 30.28 in 10.0 mi Calm Calm - N/A   Partly Cloudy
3:53 AM 37.9 °F 35.5 °F 16.0 °F 41% 30.26 in 10.0 mi West 3.5 mph - N/A   Partly Cloudy
4:53 AM 35.1 °F 32.2 °F 15.1 °F 44% 30.25 in 10.0 mi West 3.5 mph - N/A   Partly Cloudy
6:53 AM 36.0 °F - 15.1 °F 43% 30.26 in 10.0 mi Calm Calm - N/A   Scattered Clouds
8:53 AM 42.1 °F 38.4 °F 18.0 °F 38% 30.26 in 10.0 mi South 5.8 mph - N/A   Mostly Cloudy
9:53 AM 51.1 °F - 16.0 °F 25% 30.25 in 10.0 mi South 13.8 mph - N/A   Mostly Cloudy
10:53 AM 55.9 °F - 16.0 °F 21% 30.20 in 10.0 mi South 16.1 mph - N/A   Mostly Cloudy
11:53 AM 59.0 °F - 17.1 °F 20% 30.16 in 10.0 mi South 16.1 mph - N/A   Mostly Cloudy
12:53 PM 61.0 °F - 21.0 °F 21% 30.11 in 10.0 mi SSW 18.4 mph - N/A   Mostly Cloudy
1:53 PM 62.1 °F - 23.0 °F 22% 30.06 in 10.0 mi South 18.4 mph - N/A   Mostly Cloudy
2:53 PM 64.0 °F - 25.0 °F 23% 30.01 in 10.0 mi SSW 17.3 mph - N/A   Mostly Cloudy
3:53 PM 64.9 °F - 26.1 °F 23% 29.99 in 10.0 mi SSW 18.4 mph - N/A   Scattered Clouds
4:53 PM 64.0 °F - 27.0 °F 25% 29.97 in 10.0 mi SSW 19.6 mph - N/A   Scattered Clouds
5:53 PM 61.0 °F - 27.0 °F 27% 29.97 in 10.0 mi SSW 11.5 mph - N/A   Mostly Cloudy
6:53 PM 57.0 °F - 27.0 °F 32% 29.98 in 10.0 mi South 10.4 mph - N/A   Mostly Cloudy
7:53 PM 54.0 °F - 27.0 °F 35% 29.97 in 10.0 mi South 12.7 mph - N/A   Mostly Cloudy
8:53 PM 53.1 °F - 27.0 °F 37% 29.96 in 10.0 mi South 10.4 mph - N/A   Mostly Cloudy
9:53 PM 54.0 °F - 28.0 °F 37% 29.92 in 10.0 mi South 11.5 mph - N/A   Scattered Clouds
10:53 PM 53.1 °F - 28.0 °F 38% 29.90 in 10.0 mi SSW 12.7 mph - N/A   Scattered Clouds
11:53 PM 55.0 °F - 28.9 °F 37% 29.87 in 10.0 mi SSW 17.3 mph - N/A   Partly Cloudy